User: anonymous   Login
Location: Bieg
(49.3499°N, 10.3835°E)
Time: 12:54:07
(UTC+00:00)
Language:

Cosmos 2151 Rocket - Orbit

View from above orbital plane
View from above orbital plane
View from above satellite
View from above satellite

Ground track
Ground track

The orbit data is extracted from the following two-line orbital elements,

1 21423U 91042B   24198.68590285  .00000700  00000-0  87557-4 0  9998
2 21423  82.4923  63.4343 0018596  57.7769 302.5244 14.80833607764091
Epoch (UTC): 16 July 2024 16:27:42
Eccentricity: 0.0018596
inclination: 82.4923°
perigee height: 613 km
apogee height: 640 km
right ascension of ascending node: 63.4343°
argument of perigee: 57.7769°
revolutions per day: 14.80833607
mean anomaly at epoch: 302.5244°
orbit number at epoch: 76409

The dashed part of the orbit path shows where the satellite is in the earth's shadow,  

DLR